Wind_Speed
34 34 31 30 28 27 25 23 20 17 15 15 13 13 13 12 12 12 12 11 10 7 6 6 6 7 8 8 8 7 7 7 5 3 3 4 7 8 8 9 10 11 12
38 37 35 32 31 28 24 24 21 18 16 15 14 15 14 13 12 13 12 14 14 9 9 8 7 7 8 9 8 8 8 7 6 5 3 3 6 8 9 10 11 11 11
37 39 37 36 33 29 25 23 20 18 18 16 16 16 16 15 15 15 17 18 19 18 13 12 11 11 12 11 10 8 11 9 7 6 4 3 5 8 9 10 11 12 12
41 40 34 36 34 29 27 25 22 21 19 18 17 17 17 16 16 17 15 17 18 18 16 14 12 13 13 12 11 10 12 11 9 7 5 4 6 8 8 9 10 11 12
30 38 33 32 32 31 30 26 25 23 21 19 17 17 17 18 18 18 18 16 15 14 14 14 13 14 13 10 8 7 11 11 9 7 6 6 7 7 6 7 9 10 12
25 22 23 30 33 34 30 28 27 25 23 20 17 18 16 18 20 19 19 19 17 14 13 13 12 11 10 7 7 7 12 11 9 9 8 7 7 6 3 5 7 9 11
26 21 24 29 32 37 31 31 26 23 24 17 15 16 17 17 18 18 17 17 17 15 14 11 10 9 8 6 3 7 13 10 8 9 8 8 8 6 4 4 6 9 12
26 31 29 30 33 29 29 30 29 23 22 20 8 3 2 6 15 15 18 19 18 16 13 11 10 9 7 4 4 8 10 7 6 6 7 8 7 6 4 3 6 8 11
36 37 33 40 36 33 35 31 29 27 22 20 19 6 1 4 0 10 19 20 19 17 14 13 12 10 7 6 7 9 10 12 9 8 8 7 8 7 5 5 6 8 10
35 40 42 38 29 34 31 29 29 28 24 20 14 20 11 1 2 2 7 19 19 19 18 16 14 12 10 8 10 9 11 12 13 11 8 10 11 8 2 4 6 8 11
32 35 29 30 32 33 31 29 29 27 24 20 17 8 11 7 7 1 3 5 15 19 20 19 18 15 12 11 9 8 7 10 10 9 6 8 6 9 9 4 6 9 11
10 21 28 27 31 31 32 31 26 21 20 20 20 19 20 9 9 10 5 7 7 12 19 19 18 17 15 12 10 8 8 10 11 9 7 10 6 6 7 7 8 9 10
7 3 4 12 20 25 23 23 18 16 18 22 23 26 26 28 27 22 17 10 6 9 15 20 18 18 18 14 12 10 8 9 9 8 5 5 9 11 12 13 10 9 11
6 6 6 9 12 13 12 14 18 21 23 25 24 27 28 33 32 29 20 13 1 4 5 6 20 22 20 16 13 10 9 7 7 8 5 9 11 12 13 12 12 12 13
10 12 17 19 17 16 20 22 22 23 21 22 22 25 30 32 33 30 24 22 12 4 9 16 11 21 19 17 13 11 9 8 7 9 10 10 10 10 10 14 13 13 14
9 16 17 17 19 21 22 23 26 27 24 25 29 30 33 33 29 26 24 27 26 20 5 15 18 14 20 17 15 13 11 8 8 9 10 10 10 9 9 11 12 12 13
0 5 11 16 19 22 24 28 29 28 27 27 30 31 31 30 33 29 28 30 29 24 10 10 16 18 20 20 18 17 14 11 11 10 10 10 9 8 9 9 10 11 13
4 2 4 6 7 10 12 16 18 19 22 25 26 28 31 31 35 33 33 32 30 28 17 7 16 17 17 21 18 17 15 14 12 13 13 12 10 10 8 8 10 11 10
9 7 6 6 6 8 12 14 16 18 20 22 23 25 27 27 29 28 28 30 31 25 21 14 13 15 18 19 19 18 17 17 14 15 14 13 10 10 8 8 8 11 10
10 10 10 11 11 11 12 13 15 18 20 21 22 23 25 26 28 27 28 29 26 22 18 16 13 12 12 13 20 20 18 18 17 15 13 14 13 14 10 9 9 10 8
12 12 12 13 13 14 16 18 17 18 20 21 23 25 26 25 24 23 24 26 23 25 22 17 13 10 12 10 18 17 18 16 16 16 15 15 15 13 11 9 8 6 5
16 15 16 16 17 16 16 17 18 20 21 21 24 25 24 24 25 23 22 20 25 26 24 19 17 14 17 21 22 21 17 11 4 15 17 17 17 15 11 9 6 3 5
18 18 17 16 17 18 18 18 18 19 22 24 24 24 26 24 23 22 23 23 25 25 29 28 21 25 18 26 26 22 20 17 9 6 18 11 15 13 9 8 6 5 4
22 22 22 22 22 20 19 20 21 22 22 24 25 25 26 26 25 22 22 23 25 24 27 28 30 27 25 19 24 26 24 19 12 9 16 8 10 9 10 9 9 7 4
17 18 19 22 22 22 21 21 22 24 26 27 25 26 26 26 25 24 23 24 25 24 24 25 25 20 19 17 19 22 20 16 6 10 18 7 6 7 9 11 11 9 5
18 20 20 19 20 22 22 24 23 24 21 22 25 27 25 25 24 24 24 26 26 29 25 22 22 18 19 17 19 21 22 18 9 6 16 13 10 8 3 8 13 12 8
Wind_Direction
194 193 195 198 196 199 202 201 200 203 207 208 213 215 222 231 235 232 231 234 232 232 240 251 261 268 275 287 289 275 274 278 276 276 329 3 20 22 11 359 354 345 347
201 195 196 201 201 202 204 207 205 209 212 217 226 230 232 237 234 233 239 239 237 223 244 245 245 263 268 277 278 275 264 258 249 250 280 344 3 8 7 1 351 340 337
204 198 198 202 205 206 205 213 214 219 221 221 233 236 238 241 240 243 248 247 243 241 236 235 254 256 271 278 275 276 256 238 232 232 248 293 336 353 351 354 349 346 350
211 203 201 201 206 206 209 213 221 222 222 229 235 237 240 245 242 253 248 255 250 246 237 235 251 258 268 269 278 276 237 221 221 228 245 284 323 333 343 348 350 357 358
205 201 198 203 206 209 216 218 224 229 230 234 237 242 240 248 248 249 246 246 238 235 233 240 245 259 264 269 277 274 228 207 211 222 244 278 297 315 337 350 353 350 349
196 203 206 209 213 217 220 227 226 230 238 237 240 244 247 248 254 256 256 249 226 227 228 236 254 259 258 264 270 261 207 211 222 226 242 259 281 302 323 352 358 353 351
183 201 212 223 223 226 220 226 224 228 229 231 233 246 252 252 256 256 242 223 216 222 227 243 251 246 254 271 284 201 194 217 211 229 244 258 275 283 286 324 334 342 341
198 200 203 228 228 228 220 223 220 220 232 226 202 192 257 258 248 241 228 221 223 221 226 237 236 236 232 243 211 194 200 206 218 233 256 264 255 261 282 327 334 336 333
195 196 206 221 218 219 219 217 221 223 225 221 216 190 155 225 322 225 225 227 224 221 220 223 222 229 229 237 230 225 233 235 243 261 274 261 270 261 261 322 340 340 334
202 210 207 217 220 218 222 222 227 226 224 226 223 232 240 246 203 287 237 231 228 223 219 219 220 222 225 225 233 235 244 251 250 252 267 273 268 261 280 319 328 339 330
200 207 209 210 220 217 224 226 222 224 227 225 223 225 227 236 251 254 269 244 228 231 226 224 224 222 221 222 233 241 254 257 243 239 254 281 261 256 270 327 338 336 326
208 218 217 221 228 224 227 229 228 230 235 234 239 250 246 216 234 213 225 247 220 224 229 222 222 226 220 217 228 246 256 252 246 242 260 272 226 237 275 302 328 330 326
197 235 255 237 246 235 238 239 231 230 237 238 240 246 251 251 244 238 221 213 197 196 206 216 223 225 221 216 225 238 251 253 246 241 244 222 242 257 289 306 312 329 330
189 229 246 229 236 239 247 264 259 255 251 250 245 248 255 257 254 240 231 217 215 222 232 232 211 218 217 217 225 229 241 240 235 239 222 234 259 282 288 294 306 314 318
229 251 254 253 253 257 269 276 259 256 264 269 273 273 264 259 252 234 237 232 202 201 222 220 200 213 214 218 221 225 227 227 238 241 247 256 273 279 293 300 305 314 321
250 238 241 241 249 259 258 257 269 260 264 272 274 263 261 248 241 239 235 236 228 230 238 215 208 210 207 211 217 222 219 227 239 243 246 246 256 272 285 298 307 318 325
38 256 249 245 247 252 259 266 267 266 263 269 258 263 264 254 246 244 246 248 244 235 215 207 211 210 202 206 213 214 219 232 234 238 248 258 257 264 282 292 305 318 324
26 346 292 283 279 274 266 263 266 267 268 261 257 256 258 258 252 251 248 245 235 230 225 191 200 200 206 207 210 212 223 228 229 232 234 244 249 260 270 292 312 312 333
20 1 342 327 306 287 281 281 284 284 281 279 275 274 268 262 257 252 251 240 235 228 222 203 209 205 210 208 206 220 224 226 231 231 230 235 238 245 264 289 295 311 330
13 3 356 344 336 328 317 309 305 300 297 294 289 281 275 274 271 265 250 236 233 232 214 216 208 193 214 225 217 222 225 228 233 231 235 243 239 240 253 267 287 306 323
16 5 360 354 347 339 334 327 316 308 302 298 295 293 288 281 272 261 253 240 223 221 204 206 217 214 189 204 217 225 233 241 239 236 234 233 238 243 248 255 273 293 321
11 3 358 352 346 337 327 317 311 305 301 298 297 297 294 288 277 264 250 241 237 220 215 204 207 226 198 219 230 225 217 207 226 235 226 229 231 235 239 255 254 255 297
12 11 4 353 341 334 335 329 319 311 306 299 292 291 291 287 284 271 260 252 244 243 242 237 211 227 206 229 237 215 212 213 203 223 204 222 226 234 238 236 224 224 271
354 354 352 352 350 345 337 327 322 319 311 301 292 285 282 283 279 269 260 251 249 240 238 235 240 245 254 247 238 235 223 212 212 221 201 209 211 214 222 212 218 233 256
336 334 336 333 334 328 332 332 329 323 315 310 302 290 283 285 285 282 267 250 243 238 234 237 240 244 244 235 227 219 202 186 185 200 205 219 203 206 218 216 211 222 233
331 333 331 328 322 322 325 326 325 324 317 306 302 300 293 284 280 273 260 254 247 248 237 232 234 230 228 221 223 225 221 188 183 194 211 199 190 188 188 212 208 214 221
Height
800 803 806 808 810 813 816 819 821 824 826 828 829 830 831 832 832 832 833 833 834 834 834 834 834 833 833 832 831 830 830 831 831 831 830 829 828 827 826 825 824 822 821
797 799 802 806 807 810 813 817 819 822 824 826 828 829 830 830 830 830 831 831 832 832 833 833 832 832 831 830 830 829 828 828 829 830 830 829 828 827 826 824 822 820 818
796 795 796 800 804 807 811 815 818 819 821 823 824 826 827 828 828 828 828 829 829 830 830 830 830 830 830 829 828 828 827 827 827 828 828 828 827 826 825 823 821 819 818
788 794 793 795 801 806 809 811 815 817 818 819 821 823 825 826 826 826 826 827 826 827 827 828 827 828 827 826 825 826 825 825 825 827 827 828 826 825 824 823 822 821 818
784 788 788 792 799 805 807 809 812 815 816 817 819 821 822 823 823 823 823 823 824 824 824 826 824 825 824 824 823 824 825 824 824 825 826 826 825 824 823 823 822 820 819
779 768 786 792 796 803 805 808 809 812 814 815 817 819 819 819 820 820 820 821 821 821 823 823 822 822 822 821 820 820 823 822 822 823 823 823 823 822 822 821 820 819 818
770 778 784 793 794 803 799 806 807 809 813 813 815 815 816 815 816 816 818 819 820 819 819 820 820 821 821 819 817 816 820 821 821 821 820 820 821 821 819 818 819 820 820
767 779 784 789 793 796 796 803 805 805 809 811 811 813 815 813 812 813 814 815 816 816 816 817 818 819 816 817 818 817 818 821 821 821 820 819 819 818 819 817 816 816 817
767 775 781 787 788 793 795 797 800 802 806 806 807 809 813 811 809 809 810 812 813 813 813 815 816 816 815 815 818 816 817 819 819 819 819 819 819 818 817 816 816 816 815
767 773 777 780 783 790 793 793 798 801 801 802 805 807 806 808 810 811 809 810 811 810 810 811 811 812 812 813 815 813 814 816 817 817 818 818 816 816 815 815 814 814 813
770 772 773 779 783 786 790 792 793 795 797 798 801 803 804 807 810 811 808 808 809 807 808 808 809 807 808 810 811 811 811 814 813 813 814 815 814 814 815 814 813 812 811
766 770 772 775 781 783 783 785 786 790 792 794 797 799 800 800 804 805 807 806 802 803 807 804 805 807 806 806 809 809 808 810 811 810 813 814 812 813 812 812 810 809 809
766 768 768 773 778 781 783 785 784 787 788 790 789 792 795 796 796 797 797 798 798 797 799 798 801 803 804 802 804 805 807 808 809 809 810 810 809 810 811 810 808 807 808
761 765 771 774 776 779 781 783 785 784 785 787 784 785 786 790 792 791 792 793 794 795 795 794 793 797 800 800 801 801 803 804 805 806 808 808 808 808 807 806 806 804 803
763 766 769 771 774 776 779 779 782 783 781 782 780 780 784 784 783 785 784 787 788 792 790 789 788 792 795 797 799 799 800 801 802 803 804 806 808 806 805 805 803 801 800
763 766 768 769 772 774 777 778 777 777 777 778 778 778 779 774 777 780 777 781 781 783 783 782 783 785 789 791 793 795 795 796 798 798 798 799 801 802 801 800 800 800 799
762 763 764 766 768 770 771 773 771 772 771 770 770 771 770 771 772 772 772 774 774 776 775 777 779 781 781 784 787 789 791 792 792 793 795 796 797 797 798 796 797 796 797
763 764 766 767 766 767 766 767 766 766 765 764 764 765 764 763 764 763 764 766 768 770 771 773 775 777 778 779 783 785 787 787 788 789 790 790 794 794 793 794 795 794 791
764 766 767 766 764 764 765 765 763 761 761 762 761 760 760 759 758 756 758 755 761 761 765 766 773 772 776 778 778 781 783 784 785 786 787 787 789 791 790 790 790 793 789
767 767 767 767 765 763 763 761 759 759 760 758 756 754 753 753 754 754 752 753 756 759 759 763 768 767 772 777 775 777 779 780 781 782 783 784 785 784 783 785 788 790 786
770 769 765 764 762 761 760 760 759 757 755 753 752 753 751 749 747 747 748 751 751 758 751 756 765 768 762 771 775 775 776 779 779 778 779 779 783 784 783 782 784 786 786
768 766 764 762 760 758 758 758 757 755 754 750 747 747 747 746 745 744 743 744 750 748 751 753 757 759 755 761 771 770 772 774 777 776 776 776 778 780 778 781 780 782 784
768 767 766 763 760 758 758 757 754 752 752 751 748 744 743 742 742 741 741 741 741 744 747 746 745 754 748 753 763 764 765 770 766 767 771 774 778 776 775 778 780 781 782
765 762 762 762 760 758 757 756 752 748 746 745 744 741 739 736 737 736 735 736 738 737 739 739 742 742 749 749 756 759 761 761 762 766 770 771 771 769 774 772 778 782 779
768 766 761 761 760 757 754 751 749 746 742 739 738 736 732 731 729 732 732 729 732 732 731 737 741 741 745 748 751 754 756 755 757 760 765 769 768 769 772 771 773 779 779
764 761 760 760 758 753 751 749 748 745 739 737 734 730 727 725 724 725 726 725 725 726 727 726 734 734 741 741 746 748 749 750 757 758 760 764 763 767 768 767 771 774 777